Weather History for Waupaca, WI

Change the Weather History Date:

Saturday, October 26, 2013

  Actual Average Record
Temperature  
Mean Temperature 46 °F -  
Max Temperature 52 °F 55 °F 81 °F (1989)
Min Temperature 39 °F 36 °F 16 °F (1962)
Degree Days  
Heating Degree Days 19    
Moisture  
Dew Point 31 °F    
Average Humidity 54    
Maximum Humidity 73    
Minimum Humidity 38    
Precipitation  
Precipitation 0.00 in - - ()
Sea Level Pressure  
Sea Level Pressure 29.87 in    
Wind  
Wind Speed 12 mph (WNW)    
Max Wind Speed 21 mph    
Max Gust Speed 28 mph    
Visibility 10 miles    
Events      
Averages and records for this station are not official NWS values.
T = Trace of Precipitation, MM = Missing Value Source: NWS Daily Summary

Daily Weather History Graph

Daily Weather History Graph

Search for Another Location

Airport:

Trip Planner

Search our weather history database for the weather conditions in past years. The results will help you decide how hot, cold, wet, or windy it might be!

Date:

Astronomy

Oct. 26, 2013 Rise Set
Actual Time 7:25 AM CDT 5:53 PM CDT
Civil Twilight 6:55 AM CDT 6:23 PM CDT
Nautical Twilight 6:21 AM CDT 6:57 PM CDT
Astronomical Twilight 5:48 AM CDT 7:31 PM CDT
Moon No Moon Rise 1:43 PM CDT (10/26)
Length of Visible Light 11h 27m
Length of Day
10h 28m
Waning Gibbous, 53% of the Moon is Illuminated
Oct 26
Waning Gibbous
Oct 26
Last Quarter
Nov 3
New
Nov 9
First Quarter
Nov 17
Full

Hourly Weather History & Observations

Time (CDT) Temp. Windchill Dew Point Humidity Pressure Visibility Wind Dir Wind Speed Gust Speed Precip Events Conditions
12:15 AM 51.8 °F - 30.0 °F 43% 29.74 in 10.0 mi SW 18.4 mph 25.3 mph N/A   Overcast
12:35 AM 51.8 °F - 30.2 °F 44% 29.73 in 10.0 mi WSW 20.7 mph 25.3 mph N/A   Mostly Cloudy
12:55 AM 51.8 °F - 30.7 °F 45% 29.73 in 10.0 mi SW 18.4 mph 24.2 mph N/A   Overcast
1:15 AM 52.2 °F - 30.9 °F 44% 29.72 in 10.0 mi WSW 15.0 mph 26.5 mph N/A   Overcast
1:35 AM 52.7 °F - 31.1 °F 44% 29.72 in 10.0 mi WSW 16.1 mph 24.2 mph N/A   Overcast
1:55 AM 52.5 °F - 31.5 °F 45% 29.71 in 10.0 mi WSW 12.7 mph 23.0 mph N/A   Overcast
2:15 AM 51.8 °F - 31.6 °F 46% 29.70 in 10.0 mi WSW 16.1 mph 20.7 mph N/A   Scattered Clouds
2:35 AM 50.9 °F - 31.8 °F 48% 29.70 in 10.0 mi WSW 11.5 mph - N/A   Clear
2:55 AM 50.0 °F - 32.0 °F 50% 29.70 in 10.0 mi SW 10.4 mph - N/A   Clear
3:15 AM 48.6 °F - 32.0 °F 53% 29.69 in 10.0 mi SW 8.1 mph - N/A   Clear
3:35 AM 48.2 °F - 32.4 °F 54% 29.69 in 10.0 mi SW 8.1 mph - N/A   Scattered Clouds
3:55 AM 48.7 °F - 33.1 °F 55% 29.69 in 10.0 mi WSW 9.2 mph - N/A   Scattered Clouds
4:15 AM 49.6 °F - 34.0 °F 55% 29.69 in 10.0 mi WSW 11.5 mph 16.1 mph N/A   Scattered Clouds
4:35 AM 49.1 °F - 34.2 °F 56% 29.69 in 10.0 mi West 11.5 mph - N/A   Scattered Clouds
4:55 AM 48.6 °F - 34.3 °F 58% 29.69 in 10.0 mi WSW 10.4 mph - N/A   Clear
5:15 AM 48.2 °F - 34.9 °F 60% 29.71 in 10.0 mi West 9.2 mph - N/A   Scattered Clouds
5:35 AM 47.3 °F - 35.1 °F 62% 29.71 in 10.0 mi West 9.2 mph - N/A   Clear
5:55 AM 46.0 °F 41.4 °F 35.2 °F 66% 29.72 in 10.0 mi West 9.2 mph - N/A   Clear
6:15 AM 45.1 °F 40.8 °F 35.6 °F 69% 29.72 in 10.0 mi West 8.1 mph - N/A   Scattered Clouds
6:35 AM 45.3 °F 41.1 °F 36.0 °F 70% 29.73 in 10.0 mi West 8.1 mph - N/A   Mostly Cloudy
6:55 AM 44.2 °F 40.3 °F 35.8 °F 72% 29.73 in 10.0 mi West 6.9 mph - N/A   Scattered Clouds
7:15 AM 44.1 °F 39.5 °F 36.0 °F 73% 29.74 in 10.0 mi West 8.1 mph - N/A   Clear
7:35 AM 44.6 °F 40.7 °F 36.0 °F 72% 29.75 in 10.0 mi WNW 6.9 mph - N/A   Clear
7:55 AM 45.7 °F 41.0 °F 33.6 °F 63% 29.76 in 10.0 mi WNW 9.2 mph 16.1 mph N/A   Clear
8:15 AM 45.7 °F 40.6 °F 32.5 °F 60% 29.78 in 10.0 mi WNW 10.4 mph - N/A   Scattered Clouds
8:35 AM 45.3 °F 40.1 °F 32.2 °F 60% 29.79 in 10.0 mi NW 10.4 mph - N/A   Scattered Clouds
8:55 AM 46.8 °F - 32.4 °F 57% 29.80 in 10.0 mi NW 11.5 mph - N/A   Mostly Cloudy
9:15 AM 46.6 °F - 32.0 °F 57% 29.81 in 10.0 mi NW 12.7 mph 17.3 mph N/A   Scattered Clouds
9:35 AM 48.6 °F - 32.5 °F 54% 29.81 in 10.0 mi NW 12.7 mph 17.3 mph N/A   Scattered Clouds
9:55 AM 48.2 °F - 32.2 °F 54% 29.82 in 10.0 mi WNW 10.4 mph 18.4 mph N/A   Mostly Cloudy
10:15 AM 48.2 °F - 32.0 °F 54% 29.83 in 10.0 mi NNW 15.0 mph 21.9 mph N/A   Scattered Clouds
10:35 AM 48.6 °F - 28.8 °F 46% 29.83 in 10.0 mi NW 19.6 mph 23.0 mph N/A   Scattered Clouds
10:55 AM 47.5 °F - 29.3 °F 49% 29.84 in 10.0 mi NW 12.7 mph 21.9 mph N/A   Mostly Cloudy
11:15 AM 48.2 °F - 30.9 °F 51% 29.85 in 10.0 mi WNW 13.8 mph 18.4 mph N/A   Mostly Cloudy
11:35 AM 49.8 °F - 27.7 °F 42% 29.87 in 10.0 mi NNW 12.7 mph 20.7 mph N/A   Mostly Cloudy
11:55 AM 48.4 °F - 25.2 °F 40% 29.88 in 10.0 mi NW 16.1 mph 21.9 mph N/A   Mostly Cloudy
12:15 PM 50.4 °F - 25.7 °F 38% 29.88 in 10.0 mi NW 10.4 mph 25.3 mph N/A   Mostly Cloudy
12:35 PM 49.3 °F - 26.2 °F 41% 29.89 in 10.0 mi NNW 17.3 mph 27.6 mph N/A   Overcast
12:55 PM 48.7 °F - 27.7 °F 44% 29.90 in 10.0 mi NW 17.3 mph 25.3 mph N/A   Overcast
1:15 PM 51.6 °F - 27.5 °F 39% 29.90 in 10.0 mi NW 12.7 mph 21.9 mph N/A   Overcast
1:35 PM 50.9 °F - 27.9 °F 41% 29.91 in 10.0 mi NW 12.7 mph 23.0 mph N/A   Mostly Cloudy
1:55 PM 50.0 °F - 26.6 °F 40% 29.91 in 10.0 mi WNW 16.1 mph 26.5 mph N/A   Mostly Cloudy
2:15 PM 51.4 °F - 27.5 °F 40% 29.92 in 10.0 mi NW 13.8 mph 20.7 mph N/A   Mostly Cloudy
2:35 PM 48.6 °F - 28.4 °F 46% 29.93 in 10.0 mi NW 15.0 mph 23.0 mph N/A   Overcast
2:55 PM 47.3 °F - 31.1 °F 53% 29.94 in 10.0 mi NW 15.0 mph 21.9 mph N/A   Overcast
3:15 PM 46.6 °F - 30.9 °F 54% 29.96 in 10.0 mi NW 11.5 mph 23.0 mph N/A   Overcast
3:35 PM 48.7 °F - 29.3 °F 47% 29.96 in 10.0 mi NW 18.4 mph 24.2 mph N/A   Mostly Cloudy
3:55 PM 48.2 °F - 29.5 °F 48% 29.96 in 10.0 mi NW 11.5 mph - N/A   Clear
4:15 PM 50.0 °F - 29.3 °F 45% 29.96 in 10.0 mi NNW 17.3 mph 24.2 mph N/A   Mostly Cloudy
4:35 PM 48.4 °F - 28.4 °F 46% 29.97 in 10.0 mi NW 15.0 mph 25.3 mph N/A   Overcast
4:55 PM 48.0 °F - 30.0 °F 50% 29.98 in 10.0 mi NNW 13.8 mph 19.6 mph N/A   Mostly Cloudy
5:15 PM 46.4 °F 41.9 °F 30.7 °F 54% 29.98 in 10.0 mi NNW 9.2 mph - N/A   Mostly Cloudy
5:35 PM 46.2 °F 42.2 °F 30.4 °F 54% 29.99 in 10.0 mi NW 8.1 mph - N/A   Mostly Cloudy
5:55 PM 45.7 °F 42.0 °F 30.2 °F 55% 30.00 in 10.0 mi NW 6.9 mph - N/A   Overcast
6:15 PM 45.9 °F 42.3 °F 30.0 °F 54% 30.00 in 10.0 mi NW 6.9 mph - N/A   Overcast
6:35 PM 45.7 °F 42.0 °F 29.8 °F 54% 30.01 in 10.0 mi NW 6.9 mph - N/A   Overcast
6:55 PM 45.1 °F 42.0 °F 30.4 °F 56% 30.02 in 10.0 mi NW 5.8 mph - N/A   Overcast
7:15 PM 45.1 °F 40.3 °F 30.2 °F 56% 30.03 in 10.0 mi NW 9.2 mph - N/A   Overcast
7:35 PM 45.0 °F 41.2 °F 30.0 °F 56% 30.03 in 10.0 mi NW 6.9 mph - N/A   Overcast
7:55 PM 44.8 °F 41.0 °F 29.8 °F 56% 30.03 in 10.0 mi NW 6.9 mph - N/A   Overcast
8:15 PM 44.4 °F 42.0 °F 29.8 °F 57% 30.03 in 10.0 mi NW 4.6 mph - N/A   Overcast
8:35 PM 43.7 °F 41.1 °F 29.8 °F 58% 30.03 in 10.0 mi NW 4.6 mph - N/A   Overcast
8:55 PM 43.7 °F 42.1 °F 30.2 °F 59% 30.03 in 10.0 mi NW 3.5 mph - N/A   Overcast
9:15 PM 44.1 °F 40.8 °F 30.2 °F 58% 30.03 in 10.0 mi WNW 5.8 mph - N/A   Overcast
9:35 PM 43.9 °F 42.3 °F 30.2 °F 59% 30.03 in 10.0 mi WNW 3.5 mph - N/A   Overcast
9:55 PM 43.7 °F - 30.0 °F 59% 30.03 in 10.0 mi Calm Calm - N/A   Overcast
10:15 PM 43.2 °F 40.5 °F 30.2 °F 60% 30.03 in 10.0 mi West 4.6 mph - N/A   Overcast
10:35 PM 41.7 °F 38.8 °F 30.9 °F 66% 30.03 in 10.0 mi West 4.6 mph - N/A   Overcast
10:55 PM 40.8 °F 38.8 °F 31.1 °F 68% 30.03 in 10.0 mi WSW 3.5 mph - N/A   Overcast
11:15 PM 41.0 °F 38.0 °F 31.1 °F 68% 30.03 in 10.0 mi West 4.6 mph - N/A   Overcast
11:35 PM 41.2 °F - 31.6 °F 69% 30.03 in 10.0 mi Calm Calm - N/A   Overcast
11:55 PM 39.9 °F - 32.0 °F 73% 30.02 in 10.0 mi Calm Calm - N/A   Overcast